{"data":{"norad_id":60027,"intl_designator":"2024-111M","name":"STARLINK-32012","alt_names":[],"object_type":"PAYLOAD","status":"ACTIVE","operator":null,"country":"US","launch_date":"2024-06-08","launch_site_code":"AFETR","launch_vehicle":null,"mission":null,"orbit_class":"UNKNOWN","rcs_meters":null,"size_class":null,"mass_kg":null,"dimensions":null,"purposes":["comms"],"wikipedia_slug":null,"has_3d_model":false,"image_url":null,"decayed_at":null,"tle_current":{"epoch":"2026-09-21T02:43:32.534400Z","epoch_age_seconds":124634,"freshness":"FRESH","line1":"1 60027U 24111M   26264.11357100  .00000037  00000+0  12248-4 0  9992","line2":"2 60027  53.1585 246.4877 0001260  81.1003 279.0143 15.34394257128970","mean_motion":15.34394257,"eccentricity":0.000126,"inclination_deg":53.1585,"raan_deg":246.4877,"arg_perigee_deg":81.1003,"mean_anomaly_deg":279.0143,"bstar":1.2248e-5,"rev_number":12897,"period_min":93.848109338955,"perigee_km":461.85836164561,"apogee_km":463.58225768765,"semimajor_km":6840.8573096666,"source":"CELESTRAK","updated_at":"2026-09-22T09:00:49.139434Z"}}}